Regional Weather Roundup
Issued by NWS Little Rock, AR

Home | Current Version | Previous Version | Graphics & Text | Print | Product List | Glossary On
Versions: 1 2 3 4 5 6 7 8 9 10 11 12 13 14 15 16 17 18 19 20 21 22 23 24 25 26 27 28 29 30 31 32 33 34 35 36 37 38 39 40 41 42 43 44 45 46 47 48 49 50
000
ASUS44 KLZK 090105
RWRLZK

WEATHER ROUNDUP FOR ARKANSAS
NATIONAL WEATHER SERVICE LITTLE ROCK AR
700 PM CST MON FEB 08 2016

NOTE: "FAIR" INDICATES FEW OR NO CLOUDS BELOW 12,000 FEET WITH NO
SIGNIFICANT WEATHER AND/OR OBSTRUCTIONS TO VISIBILITY.

ARZ001-003-010-029-090200-
NORTHWEST ARKANSAS

CITY           SKY/WX    TMP DP  RH WIND       PRES   REMARKS
FAYETTEVILLE   PTCLDY    34  16  47 NW15      30.10R WCI  24
FORT SMITH     CLEAR     43   8  23 NW12G21   30.13R
HARRISON       CLOUDY    34  16  47 NW16G24   30.04S WCI  24
BENTONVILLE    CLEAR     36  12  38 NW12G18   30.10S
ROGERS         CLEAR     34  14  43 NW12      30.09R WCI  25
SILOAM SPGS    CLEAR     36  10  35 NW18G24   30.12S
HIGHFILL       CLEAR     35  15  44 NW15G24   30.09S WCI  25
SPRINGDALE     CLEAR     36  12  38 NW17G29   30.11R
$$

ARZ004-005-016-090200-
NORTH CENTRAL ARKANSAS

CITY           SKY/WX    TMP DP  RH WIND       PRES   REMARKS
BATESVILLE     CLOUDY    37  16  41 W10G18    30.04S
FLIPPIN        CLOUDY   N/A N/A N/A NW17      30.02F
MTN HOME       CLOUDY    34  16  47 NW9G17    30.03S WCI  27
$$

ARZ040-041-090200-
WEST CENTRAL ARKANSAS

CITY           SKY/WX    TMP DP  RH WIND       PRES   REMARKS
MENA           CLEAR     45  12  26 NW14      30.10R
MOUNT IDA      CLEAR     43  14  31 NW7       30.06R
$$

ARZ009-017-025-026-028-090200-
NORTHEAST ARKANSAS

CITY           SKY/WX    TMP DP  RH WIND       PRES   REMARKS
CORNING        FAIR      34  23  64 NW14G25   30.01S WCI  24
JONESBORO      CLOUDY    36  20  52 NW10      30.01S
NEWPORT        CLOUDY    38  18  44 NW15      30.05S
WALNUT RIDGE   CLOUDY    36  18  48 NW22G33   30.02S
BLYTHEVILLE    CLOUDY    37  21  52 NW21G28   30.00R
$$

ARZ022-023-033-042-044-090200-
CENTRAL ARKANSAS

CITY           SKY/WX    TMP DP  RH WIND       PRES   REMARKS
LITTLE ROCK    PTCLDY    41  18  39 NW9       30.08R
N LITTLE ROCK  PTCLDY    40  19  42 NW8G18    30.08R
JACKSONVILLE   MOCLDY    41  19  40 NW9G24    30.06R
SEARCY         CLOUDY    39  19  45 NW15      30.08R
HOT SPRINGS    CLEAR     43  15  32 NW8       30.08R
RUSSELLVILLE   CLEAR     39  17  41 NW6       30.08R
CLINTON        CLOUDY    39  16  38 CALM      30.07S
$$

ARZ036-090200-
EAST ARKANSAS

CITY           SKY/WX    TMP DP  RH WIND       PRES   REMARKS
WEST MEMPHIS   CLOUDY    37  24  59 NW8       30.02R
$$

ARZ050-053-066-070-073-090200-
SOUTHWEST ARKANSAS

CITY           SKY/WX    TMP DP  RH WIND       PRES   REMARKS
ARKADELPHIA    FAIR      45  17  32 VRB7      30.10R
CAMDEN         MIX PCPN  45  10  24 NW5       30.10R
TEXARKANA      CLEAR     46  13  26 NW10      30.13R
EL DORADO      CLEAR     44  14  29 W6        30.10R
DE QUEEN       CLEAR     46  13  26 NW9G18    30.13R
$$

ARZ056-057-069-090200-
SOUTHEAST ARKANSAS

CITY           SKY/WX    TMP DP  RH WIND       PRES   REMARKS
PINE BLUFF     CLEAR     41  18  39 NW10      30.07R
STUTTGART      CLOUDY    41  21  45 NW15      30.06R
MONTICELLO     CLEAR     41  17  38 W3        30.07R

$$





USA.gov is the U.S. government's official web portal to all federal, state and local government web resources and services.